Time,TemperatureF,DewpointF,PressureIn,WindDirection,WindDirectionDegrees,WindSpeedMPH,WindSpeedGustMPH,Humidity,HourlyPrecipIn,Conditions,Clouds,dailyrainin,SoftwareType,DateUTC
2013-01-10 00:00:00,48.6,48.0,30.51,WNW,292,4.0,4.0,98,-99.99,,,0.62,meteohub,2013-01-10 05:00:00,
2013-01-10 00:01:00,48.6,48.0,30.51,NW,315,3.0,4.0,98,-99.99,,,0.62,meteohub,2013-01-10 05:01:00,
2013-01-10 00:06:00,48.6,48.0,30.51,WNW,292,3.0,4.0,98,-99.99,,,0.62,meteohub,2013-01-10 05:06:00,
2013-01-10 00:11:00,48.6,48.0,30.51,WNW,292,3.0,4.0,98,-99.99,,,0.62,meteohub,2013-01-10 05:11:00,
2013-01-10 00:16:00,48.6,48.0,30.51,NNW,338,3.0,4.0,98,-99.99,,,0.62,meteohub,2013-01-10 05:16:00,
2013-01-10 00:21:00,48.6,48.0,30.51,NW,315,4.0,6.0,98,-99.99,,,0.62,meteohub,2013-01-10 05:21:00,
2013-01-10 00:26:00,48.4,47.8,30.51,WNW,292,4.0,6.0,98,-99.99,,,0.62,meteohub,2013-01-10 05:26:00,
2013-01-10 00:31:00,48.4,47.8,30.51,WNW,292,3.0,6.0,98,-99.99,,,0.62,meteohub,2013-01-10 05:31:00,
2013-01-10 00:36:00,48.4,47.8,30.51,WNW,292,3.0,6.0,98,-99.99,,,0.62,meteohub,2013-01-10 05:36:00,
2013-01-10 00:41:00,48.4,47.8,30.51,NW,315,3.0,6.0,98,-99.99,,,0.62,meteohub,2013-01-10 05:41:00,
2013-01-10 00:46:00,48.4,47.8,30.51,WNW,292,5.0,6.0,98,-99.99,,,0.62,meteohub,2013-01-10 05:46:00,
2013-01-10 00:51:00,48.7,48.2,30.51,West,270,2.0,6.0,98,-99.99,,,0.62,meteohub,2013-01-10 05:51:00,
2013-01-10 00:56:00,48.6,48.0,30.51,NW,315,3.0,6.0,98,-99.99,,,0.62,meteohub,2013-01-10 05:56:00,
2013-01-10 01:01:00,48.4,47.8,30.51,NW,315,3.0,6.0,98,-99.99,,,0.62,meteohub,2013-01-10 06:01:00,
2013-01-10 01:06:00,48.2,47.7,30.51,WNW,292,2.0,6.0,98,-99.99,,,0.62,meteohub,2013-01-10 06:06:00,
2013-01-10 01:12:00,48.0,47.5,30.51,NW,315,4.0,6.0,98,-99.99,,,0.62,meteohub,2013-01-10 06:12:00,
2013-01-10 01:16:00,48.0,47.5,30.51,WNW,292,3.0,6.0,98,-99.99,,,0.62,meteohub,2013-01-10 06:16:00,
2013-01-10 01:21:00,48.2,47.7,30.51,NW,315,6.0,6.0,98,-99.99,,,0.62,meteohub,2013-01-10 06:21:00,
2013-01-10 01:26:00,48.2,47.7,30.51,NW,315,3.0,6.0,98,-99.99,,,0.62,meteohub,2013-01-10 06:26:00,
2013-01-10 01:32:00,48.2,47.7,30.51,NW,315,3.0,6.0,98,-99.99,,,0.62,meteohub,2013-01-10 06:32:00,
2013-01-10 01:37:00,48.0,47.5,30.51,NW,315,4.0,6.0,98,-99.99,,,0.62,meteohub,2013-01-10 06:37:00,
2013-01-10 01:42:00,48.0,47.5,30.51,NW,315,2.0,6.0,98,-99.99,,,0.62,meteohub,2013-01-10 06:42:00,
2013-01-10 01:47:00,47.8,47.3,30.51,NW,315,2.0,4.0,98,-99.99,,,0.62,meteohub,2013-01-10 06:47:00,
2013-01-10 01:52:00,47.7,47.1,30.51,NNW,338,3.0,4.0,98,-99.99,,,0.62,meteohub,2013-01-10 06:52:00,
2013-01-10 01:57:00,47.7,47.1,30.51,WNW,292,3.0,4.0,98,-99.99,,,0.62,meteohub,2013-01-10 06:57:00,
2013-01-10 02:02:00,47.5,46.9,30.51,NW,315,4.0,4.0,98,-99.99,,,0.62,meteohub,2013-01-10 07:02:00,
2013-01-10 02:07:00,47.3,46.8,30.52,NW,315,4.0,4.0,98,-99.99,,,0.62,meteohub,2013-01-10 07:07:00,
2013-01-10 02:12:00,47.1,46.6,30.52,NW,315,3.0,5.0,98,-99.99,,,0.62,meteohub,2013-01-10 07:12:00,
2013-01-10 02:17:00,47.1,46.6,30.52,NW,315,4.0,6.0,98,-99.99,,,0.62,meteohub,2013-01-10 07:17:00,
2013-01-10 02:22:00,47.3,46.8,30.52,NW,315,4.0,6.0,98,-99.99,,,0.62,meteohub,2013-01-10 07:22:00,
2013-01-10 02:27:00,47.3,46.8,30.52,NW,315,4.0,6.0,98,-99.99,,,0.62,meteohub,2013-01-10 07:27:00,
2013-01-10 02:32:00,47.1,46.6,30.52,NNW,338,3.0,4.0,98,-99.99,,,0.62,meteohub,2013-01-10 07:32:00,
2013-01-10 02:37:00,46.9,46.4,30.52,NW,315,3.0,4.0,98,-99.99,,,0.62,meteohub,2013-01-10 07:37:00,
2013-01-10 02:42:00,46.9,46.4,30.52,NW,315,4.0,5.0,98,-99.99,,,0.62,meteohub,2013-01-10 07:42:00,
2013-01-10 02:47:00,46.9,46.4,30.52,NW,315,5.0,5.0,98,-99.99,,,0.62,meteohub,2013-01-10 07:47:00,
2013-01-10 02:52:00,47.1,46.6,30.52,NNW,338,5.0,6.0,98,-99.99,,,0.62,meteohub,2013-01-10 07:52:00,
2013-01-10 02:57:00,47.3,46.8,30.52,NW,315,5.0,6.0,98,-99.99,,,0.62,meteohub,2013-01-10 07:57:00,
2013-01-10 03:02:00,47.5,46.9,30.51,NW,315,4.0,6.0,98,-99.99,,,0.62,meteohub,2013-01-10 08:02:00,
2013-01-10 03:07:00,47.5,46.9,30.51,NW,315,4.0,6.0,98,-99.99,,,0.62,meteohub,2013-01-10 08:07:00,
2013-01-10 03:12:00,47.5,46.9,30.51,NNW,338,5.0,6.0,98,-99.99,,,0.62,meteohub,2013-01-10 08:12:00,
2013-01-10 03:17:00,47.5,46.9,30.51,NW,315,4.0,6.0,98,-99.99,,,0.62,meteohub,2013-01-10 08:17:00,
2013-01-10 03:22:00,47.5,46.9,30.51,NW,315,4.0,6.0,98,-99.99,,,0.62,meteohub,2013-01-10 08:22:00,
2013-01-10 03:27:00,47.5,46.9,30.51,WNW,292,4.0,6.0,98,-99.99,,,0.62,meteohub,2013-01-10 08:27:00,
2013-01-10 03:31:00,47.5,46.9,30.51,NW,315,4.0,6.0,98,-99.99,,,0.62,meteohub,2013-01-10 08:31:00,
2013-01-10 03:37:00,47.5,46.9,30.51,NW,315,5.0,6.0,98,-99.99,,,0.62,meteohub,2013-01-10 08:37:00,
2013-01-10 03:42:00,47.5,46.9,30.51,NW,315,4.0,6.0,98,-99.99,,,0.62,meteohub,2013-01-10 08:42:00,
2013-01-10 03:47:00,47.3,46.8,30.52,NW,315,4.0,6.0,98,-99.99,,,0.62,meteohub,2013-01-10 08:47:00,
2013-01-10 03:52:00,47.3,46.8,30.52,NNW,338,4.0,6.0,98,-99.99,,,0.62,meteohub,2013-01-10 08:52:00,
2013-01-10 03:57:00,47.3,46.8,30.52,NW,315,3.0,6.0,98,-99.99,,,0.62,meteohub,2013-01-10 08:57:00,
2013-01-10 04:02:00,47.1,46.6,30.52,NW,315,2.0,6.0,98,-99.99,,,0.62,meteohub,2013-01-10 09:02:00,
2013-01-10 04:07:00,47.1,46.6,30.52,NW,315,4.0,5.0,98,-99.99,,,0.62,meteohub,2013-01-10 09:07:00,
2013-01-10 04:12:00,46.9,46.4,30.48,NW,315,4.0,5.0,98,-99.99,,,0.62,meteohub,2013-01-10 09:12:00,
2013-01-10 04:17:00,46.9,46.4,30.48,NW,315,3.0,5.0,98,-99.99,,,0.62,meteohub,2013-01-10 09:17:00,
2013-01-10 04:22:00,46.9,46.4,30.48,NW,315,2.0,5.0,98,-99.99,,,0.62,meteohub,2013-01-10 09:22:00,
2013-01-10 04:27:00,46.8,46.2,30.52,NW,315,3.0,4.0,98,-99.99,,,0.62,meteohub,2013-01-10 09:27:00,
2013-01-10 04:31:00,46.6,46.0,30.52,NW,315,4.0,4.0,98,-99.99,,,0.62,meteohub,2013-01-10 09:31:00,
2013-01-10 04:37:00,46.4,45.9,30.52,NNW,338,3.0,4.0,98,-99.99,,,0.62,meteohub,2013-01-10 09:37:00,
2013-01-10 04:42:00,46.2,45.7,30.53,NW,315,3.0,4.0,98,-99.99,,,0.62,meteohub,2013-01-10 09:42:00,
2013-01-10 04:47:00,46.0,45.5,30.53,NW,315,3.0,4.0,98,-99.99,,,0.62,meteohub,2013-01-10 09:47:00,
2013-01-10 04:52:00,45.9,45.3,30.53,West,270,0.0,4.0,98,-99.99,,,0.62,meteohub,2013-01-10 09:52:00,
2013-01-10 04:57:00,45.7,45.1,30.53,SSW,202,0.0,4.0,98,-99.99,,,0.62,meteohub,2013-01-10 09:57:00,
2013-01-10 05:02:00,45.7,45.1,30.53,SSW,202,0.0,3.0,98,-99.99,,,0.62,meteohub,2013-01-10 10:02:00,
2013-01-10 05:07:00,45.5,45.0,30.53,SSW,202,0.0,2.0,98,-99.99,,,0.62,meteohub,2013-01-10 10:07:00,
2013-01-10 05:12:00,45.1,44.6,30.53,South,180,1.0,3.0,98,-99.99,,,0.62,meteohub,2013-01-10 10:12:00,
2013-01-10 05:17:00,45.5,45.0,30.53,SSE,158,0.0,3.0,98,-99.99,,,0.62,meteohub,2013-01-10 10:17:00,
2013-01-10 05:22:00,45.9,45.3,30.53,ESE,112,0.0,3.0,98,-99.99,,,0.62,meteohub,2013-01-10 10:22:00,
2013-01-10 05:27:00,45.9,45.3,30.53,NW,315,2.0,3.0,98,-99.99,,,0.62,meteohub,2013-01-10 10:27:00,
2013-01-10 05:32:00,45.3,44.8,30.53,WNW,292,2.0,4.0,98,-99.99,,,0.62,meteohub,2013-01-10 10:32:00,
2013-01-10 05:37:00,45.9,45.3,30.53,NW,315,3.0,4.0,98,-99.99,,,0.62,meteohub,2013-01-10 10:37:00,
2013-01-10 05:42:00,46.0,45.5,30.53,NW,315,2.0,4.0,98,-99.99,,,0.62,meteohub,2013-01-10 10:42:00,
2013-01-10 05:47:00,46.2,45.7,30.53,WNW,292,2.0,3.0,98,-99.99,,,0.62,meteohub,2013-01-10 10:47:00,
2013-01-10 05:52:00,46.2,45.7,30.53,WNW,292,0.0,3.0,98,-99.99,,,0.62,meteohub,2013-01-10 10:52:00,
2013-01-10 05:57:00,46.2,45.7,30.49,NNW,338,0.0,3.0,98,-99.99,,,0.62,meteohub,2013-01-10 10:57:00,
2013-01-10 06:02:00,46.4,45.9,30.49,NNE,22,1.0,3.0,98,-99.99,,,0.62,meteohub,2013-01-10 11:02:00,
2013-01-10 06:07:00,46.4,45.9,30.49,NE,45,1.0,2.0,98,-99.99,,,0.62,meteohub,2013-01-10 11:07:00,
2013-01-10 06:12:00,46.4,45.9,30.52,NNE,22,3.0,3.0,98,-99.99,,,0.62,meteohub,2013-01-10 11:12:00,
2013-01-10 06:17:00,46.6,46.0,30.52,WNW,292,0.0,3.0,98,-99.99,,,0.62,meteohub,2013-01-10 11:17:00,
2013-01-10 06:22:00,46.6,46.0,30.52,WSW,248,0.0,3.0,98,-99.99,,,0.62,meteohub,2013-01-10 11:22:00,
2013-01-10 06:27:00,46.8,46.2,30.52,WSW,248,0.0,3.0,98,-99.99,,,0.62,meteohub,2013-01-10 11:27:00,
2013-01-10 06:32:00,46.8,46.2,30.52,SW,225,0.0,1.0,98,-99.99,,,0.62,meteohub,2013-01-10 11:32:00,
2013-01-10 06:37:00,46.8,46.2,30.52,SW,225,0.0,0.0,98,-99.99,,,0.62,meteohub,2013-01-10 11:37:00,
2013-01-10 06:42:00,46.8,46.2,30.52,South,180,2.0,0.0,98,-99.99,,,0.62,meteohub,2013-01-10 11:42:00,
2013-01-10 06:47:00,47.3,46.8,30.52,South,180,3.0,3.0,98,-99.99,,,0.62,meteohub,2013-01-10 11:47:00,
2013-01-10 06:52:00,47.3,46.8,30.52,South,180,0.0,3.0,98,-99.99,,,0.62,meteohub,2013-01-10 11:52:00,
2013-01-10 06:57:00,47.7,47.1,30.51,South,180,0.0,3.0,98,-99.99,,,0.62,meteohub,2013-01-10 11:57:00,
2013-01-10 07:02:00,48.0,47.5,30.51,SSE,158,3.0,3.0,98,-99.99,,,0.62,meteohub,2013-01-10 12:02:00,
2013-01-10 07:07:00,48.2,47.7,30.51,SSW,202,4.0,5.0,98,-99.99,,,0.62,meteohub,2013-01-10 12:07:00,
2013-01-10 07:12:00,48.2,47.7,30.51,SSE,158,3.0,5.0,98,-99.99,,,0.62,meteohub,2013-01-10 12:12:00,
2013-01-10 07:17:00,47.8,47.3,30.51,SSE,158,2.0,5.0,98,-99.99,,,0.62,meteohub,2013-01-10 12:17:00,
2013-01-10 07:22:00,47.3,46.8,30.52,SW,225,0.0,5.0,98,-99.99,,,0.62,meteohub,2013-01-10 12:22:00,
2013-01-10 07:27:00,47.1,46.6,30.52,SSW,202,2.0,5.0,98,-99.99,,,0.62,meteohub,2013-01-10 12:27:00,
2013-01-10 07:32:00,46.9,46.4,30.52,South,180,3.0,3.0,98,-99.99,,,0.62,meteohub,2013-01-10 12:32:00,
2013-01-10 07:37:00,47.7,47.1,30.51,SSE,158,4.0,5.0,98,-99.99,,,0.62,meteohub,2013-01-10 12:37:00,
2013-01-10 07:42:00,48.2,47.7,30.54,SSE,158,4.0,5.0,98,-99.99,,,0.62,meteohub,2013-01-10 12:42:00,
2013-01-10 07:47:00,48.6,48.0,30.54,SSE,158,6.0,6.0,98,-99.99,,,0.62,meteohub,2013-01-10 12:47:00,
2013-01-10 07:52:00,48.7,48.2,30.54,SSE,158,5.0,6.0,98,-99.99,,,0.62,meteohub,2013-01-10 12:52:00,
2013-01-10 07:57:00,48.7,48.2,30.51,SSE,158,5.0,7.0,98,-99.99,,,0.62,meteohub,2013-01-10 12:57:00,
2013-01-10 08:02:00,48.7,48.2,30.51,SSE,158,4.0,7.0,98,-99.99,,,0.62,meteohub,2013-01-10 13:02:00,
2013-01-10 08:07:00,48.7,48.2,30.51,SSE,158,5.0,7.0,98,-99.99,,,0.62,meteohub,2013-01-10 13:07:00,
2013-01-10 08:12:00,48.7,48.2,30.54,South,180,4.0,7.0,98,-99.99,,,0.62,meteohub,2013-01-10 13:12:00,
2013-01-10 08:17:00,48.9,48.4,30.54,SSE,158,6.0,7.0,98,-99.99,,,0.62,meteohub,2013-01-10 13:17:00,
2013-01-10 08:22:00,48.9,48.4,30.54,SSE,158,4.0,7.0,98,-99.99,,,0.62,meteohub,2013-01-10 13:22:00,
2013-01-10 08:27:00,48.9,48.4,30.54,SSE,158,4.0,6.0,98,-99.99,,,0.62,meteohub,2013-01-10 13:27:00,
2013-01-10 08:32:00,49.1,48.6,30.53,SSE,158,4.0,6.0,98,-99.99,,,0.62,meteohub,2013-01-10 13:32:00,
2013-01-10 08:37:00,49.1,48.6,30.53,SSE,158,5.0,6.0,98,-99.99,,,0.62,meteohub,2013-01-10 13:37:00,
2013-01-10 08:42:00,49.3,48.7,30.53,SSE,158,5.0,6.0,98,-99.99,,,0.62,meteohub,2013-01-10 13:42:00,
2013-01-10 08:47:00,49.5,48.9,30.53,SSE,158,4.0,6.0,98,-99.99,,,0.62,meteohub,2013-01-10 13:47:00,
2013-01-10 08:52:00,49.5,48.9,30.53,SSE,158,4.0,6.0,98,-99.99,,,0.62,meteohub,2013-01-10 13:52:00,
2013-01-10 08:57:00,49.6,49.1,30.56,SSE,158,7.0,7.0,98,-99.99,,,0.62,meteohub,2013-01-10 13:57:00,
2013-01-10 09:02:00,49.8,49.3,30.56,SSE,158,6.0,7.0,98,-99.99,,,0.62,meteohub,2013-01-10 14:02:00,
2013-01-10 09:07:00,49.8,49.3,30.56,SSE,158,6.0,7.0,98,-99.99,,,0.62,meteohub,2013-01-10 14:07:00,
2013-01-10 09:12:00,50.0,49.5,30.53,SSE,158,6.0,8.0,98,-99.99,,,0.62,meteohub,2013-01-10 14:12:00,
2013-01-10 09:17:00,50.0,49.5,30.53,SSE,158,6.0,8.0,98,-99.99,,,0.62,meteohub,2013-01-10 14:17:00,
2013-01-10 09:22:00,50.0,49.5,30.53,SSE,158,6.0,8.0,98,-99.99,,,0.62,meteohub,2013-01-10 14:22:00,
2013-01-10 09:27:00,50.0,49.5,30.53,SSE,158,8.0,9.0,98,-99.99,,,0.62,meteohub,2013-01-10 14:27:00,
2013-01-10 09:32:00,50.2,49.6,30.53,SSE,158,7.0,9.0,98,-99.99,,,0.62,meteohub,2013-01-10 14:32:00,
2013-01-10 09:37:00,50.4,49.8,30.53,SE,135,11.0,11.0,98,-99.99,,,0.62,meteohub,2013-01-10 14:37:00,
2013-01-10 09:42:00,50.4,49.8,30.53,SSE,158,11.0,11.0,98,-99.99,,,0.62,meteohub,2013-01-10 14:42:00,
2013-01-10 09:47:00,50.4,49.8,30.53,SSE,158,8.0,11.0,98,-99.99,,,0.62,meteohub,2013-01-10 14:47:00,
2013-01-10 09:52:00,50.7,50.2,30.52,SSE,158,10.0,11.0,98,-99.99,,,0.62,meteohub,2013-01-10 14:52:00,
2013-01-10 09:57:00,50.7,50.2,30.52,South,180,10.0,11.0,98,-99.99,,,0.62,meteohub,2013-01-10 14:57:00,
2013-01-10 10:02:00,50.9,50.4,30.52,SSE,158,7.0,11.0,98,-99.99,,,0.62,meteohub,2013-01-10 15:02:00,
2013-01-10 10:07:00,51.1,50.5,30.52,SSE,158,10.0,12.0,98,-99.99,,,0.62,meteohub,2013-01-10 15:07:00,
2013-01-10 10:12:00,51.1,50.5,30.55,SSE,158,9.0,12.0,98,-99.99,,,0.62,meteohub,2013-01-10 15:12:00,
2013-01-10 10:17:00,50.9,50.4,30.56,SSE,158,10.0,12.0,98,-99.99,,,0.62,meteohub,2013-01-10 15:17:00,
2013-01-10 10:22:00,51.1,50.5,30.55,SSE,158,8.0,11.0,98,-99.99,,,0.62,meteohub,2013-01-10 15:22:00,
2013-01-10 10:27:00,51.1,50.5,30.55,SSE,158,11.0,13.0,98,-99.99,,,0.62,meteohub,2013-01-10 15:27:00,
2013-01-10 10:32:00,51.3,50.7,30.55,SSE,158,8.0,13.0,98,-99.99,,,0.62,meteohub,2013-01-10 15:32:00,
2013-01-10 10:37:00,51.4,50.9,30.55,SSE,158,10.0,13.0,98,-99.99,,,0.62,meteohub,2013-01-10 15:37:00,
2013-01-10 10:42:00,51.4,50.9,30.55,SSE,158,12.0,13.0,98,-99.99,,,0.62,meteohub,2013-01-10 15:42:00,
2013-01-10 10:47:00,51.4,50.9,30.55,SSE,158,12.0,13.0,98,-99.99,,,0.62,meteohub,2013-01-10 15:47:00,
2013-01-10 10:52:00,51.6,51.1,30.55,ESE,112,9.0,13.0,98,-99.99,,,0.62,meteohub,2013-01-10 15:52:00,
2013-01-10 10:57:00,52.0,51.4,30.55,SE,135,10.0,15.0,98,-99.99,,,0.62,meteohub,2013-01-10 15:57:00,
2013-01-10 11:02:00,52.2,51.6,30.54,SE,135,10.0,15.0,98,-99.99,,,0.62,meteohub,2013-01-10 16:02:00,
2013-01-10 11:07:00,52.3,51.3,30.54,SSE,158,10.0,15.0,96,-99.99,,,0.62,meteohub,2013-01-10 16:07:00,
2013-01-10 11:12:00,52.2,50.2,30.54,SSE,158,11.0,15.0,93,-99.99,,,0.62,meteohub,2013-01-10 16:12:00,
2013-01-10 11:17:00,52.0,49.5,30.55,SSE,158,11.0,15.0,91,-99.99,,,0.62,meteohub,2013-01-10 16:17:00,
2013-01-10 11:22:00,51.8,49.3,30.55,SSW,202,11.0,15.0,91,-99.99,,,0.62,meteohub,2013-01-10 16:22:00,
2013-01-10 11:27:00,51.4,48.9,30.52,SSE,158,11.0,15.0,91,-99.99,,,0.62,meteohub,2013-01-10 16:27:00,
2013-01-10 11:32:00,51.3,49.1,30.52,SSE,158,10.0,14.0,92,-99.99,,,0.62,meteohub,2013-01-10 16:32:00,
2013-01-10 11:37:00,50.9,48.7,30.52,SSE,158,11.0,13.0,92,-99.99,,,0.62,meteohub,2013-01-10 16:37:00,
2013-01-10 11:42:00,50.7,48.7,30.52,SSE,158,11.0,13.0,93,-99.99,,,0.62,meteohub,2013-01-10 16:42:00,
2013-01-10 11:47:00,50.7,49.1,30.52,SSE,158,9.0,13.0,94,-99.99,,,0.62,meteohub,2013-01-10 16:47:00,
2013-01-10 11:52:00,50.5,48.9,30.52,SSE,158,10.0,13.0,94,-99.99,,,0.62,meteohub,2013-01-10 16:52:00,
2013-01-10 11:57:00,50.5,49.1,30.52,South,180,9.0,11.0,95,-99.99,,,0.62,meteohub,2013-01-10 16:57:00,
2013-01-10 12:02:00,50.4,48.9,30.53,SSE,158,8.0,11.0,95,-99.99,,,0.62,meteohub,2013-01-10 17:02:00,
2013-01-10 12:07:00,50.4,48.9,30.53,SSE,158,10.0,11.0,95,-99.99,,,0.62,meteohub,2013-01-10 17:07:00,
2013-01-10 12:12:00,50.4,49.3,30.53,SSE,158,8.0,11.0,96,-99.99,,,0.62,meteohub,2013-01-10 17:12:00,
2013-01-10 12:17:00,50.5,49.5,30.52,SSE,158,8.0,10.0,96,-99.99,,,0.62,meteohub,2013-01-10 17:17:00,
2013-01-10 12:22:00,50.5,49.5,30.52,SSE,158,6.0,10.0,96,-99.99,,,0.62,meteohub,2013-01-10 17:22:00,
2013-01-10 12:27:00,50.5,49.5,30.49,SSE,158,6.0,10.0,96,-99.99,,,0.62,meteohub,2013-01-10 17:27:00,
2013-01-10 12:32:00,50.5,49.6,30.49,SSE,158,9.0,10.0,97,-99.99,,,0.62,meteohub,2013-01-10 17:32:00,
2013-01-10 12:37:00,50.7,49.8,30.49,SSE,158,8.0,9.0,97,-99.99,,,0.62,meteohub,2013-01-10 17:37:00,
2013-01-10 12:42:00,50.7,49.8,30.49,SSE,158,7.0,9.0,97,-99.99,,,0.62,meteohub,2013-01-10 17:42:00,
2013-01-10 12:47:00,50.7,49.8,30.49,SSE,158,6.0,9.0,97,-99.99,,,0.62,meteohub,2013-01-10 17:47:00,
2013-01-10 12:52:00,50.9,50.0,30.49,SSE,158,5.0,9.0,97,-99.99,,,0.62,meteohub,2013-01-10 17:52:00,
2013-01-10 12:57:00,50.9,50.0,30.49,SSE,158,6.0,9.0,97,-99.99,,,0.62,meteohub,2013-01-10 17:57:00,
2013-01-10 13:02:00,50.9,50.0,30.49,SSE,158,9.0,9.0,97,-99.99,,,0.62,meteohub,2013-01-10 18:02:00,
2013-01-10 13:07:00,50.9,50.0,30.49,SSE,158,6.0,10.0,97,-99.99,,,0.62,meteohub,2013-01-10 18:07:00,
2013-01-10 13:12:00,51.1,50.2,30.45,SSE,158,8.0,10.0,97,-99.99,,,0.62,meteohub,2013-01-10 18:12:00,
2013-01-10 13:17:00,51.1,50.2,30.45,SE,135,6.0,10.0,97,-99.99,,,0.62,meteohub,2013-01-10 18:17:00,
2013-01-10 13:22:00,51.1,50.0,30.45,SSE,158,8.0,10.0,96,-99.99,,,0.62,meteohub,2013-01-10 18:22:00,
2013-01-10 13:27:00,51.1,50.0,30.45,SSE,158,7.0,11.0,96,-99.99,,,0.62,meteohub,2013-01-10 18:27:00,
2013-01-10 13:32:00,50.9,49.8,30.45,SSE,158,10.0,11.0,96,-99.99,,,0.62,meteohub,2013-01-10 18:32:00,
2013-01-10 13:37:00,50.7,49.6,30.45,SSE,158,8.0,11.0,96,-99.99,,,0.62,meteohub,2013-01-10 18:37:00,
2013-01-10 13:42:00,50.7,49.6,30.45,SSE,158,8.0,11.0,96,-99.99,,,0.62,meteohub,2013-01-10 18:42:00,
2013-01-10 13:47:00,50.5,49.5,30.45,SSE,158,9.0,11.0,96,-99.99,,,0.62,meteohub,2013-01-10 18:47:00,
2013-01-10 13:52:00,50.5,49.5,30.45,SSE,158,8.0,11.0,96,-99.99,,,0.62,meteohub,2013-01-10 18:52:00,
2013-01-10 13:57:00,50.4,49.3,30.46,SSE,158,9.0,11.0,96,-99.99,,,0.62,meteohub,2013-01-10 18:57:00,
2013-01-10 14:02:00,50.2,49.1,30.46,SSE,158,10.0,13.0,96,-99.99,,,0.62,meteohub,2013-01-10 19:02:00,
2013-01-10 14:07:00,50.2,49.3,30.46,SSE,158,10.0,13.0,97,-99.99,,,0.62,meteohub,2013-01-10 19:07:00,
2013-01-10 14:12:00,50.2,49.3,30.46,SSE,158,8.0,13.0,97,-99.99,,,0.62,meteohub,2013-01-10 19:12:00,
2013-01-10 14:17:00,50.0,49.1,30.46,SSE,158,6.0,13.0,97,-99.99,,,0.62,meteohub,2013-01-10 19:17:00,
2013-01-10 14:22:00,50.0,49.1,30.46,SSE,158,11.0,13.0,97,-99.99,,,0.62,meteohub,2013-01-10 19:22:00,
2013-01-10 14:27:00,50.0,49.5,30.46,SSE,158,4.0,13.0,98,-99.99,,,0.62,meteohub,2013-01-10 19:27:00,
2013-01-10 14:32:00,49.8,49.3,30.46,SSE,158,9.0,11.0,98,-99.99,,,0.62,meteohub,2013-01-10 19:32:00,
2013-01-10 14:37:00,50.0,49.5,30.46,SSE,158,6.0,11.0,98,-99.99,,,0.62,meteohub,2013-01-10 19:37:00,
2013-01-10 14:42:00,50.0,49.5,30.46,SSE,158,9.0,11.0,98,-99.99,,,0.62,meteohub,2013-01-10 19:42:00,
2013-01-10 14:47:00,49.8,49.3,30.46,SSE,158,8.0,11.0,98,-99.99,,,0.62,meteohub,2013-01-10 19:47:00,
2013-01-10 14:52:00,50.0,49.5,30.46,SSE,158,8.0,11.0,98,-99.99,,,0.62,meteohub,2013-01-10 19:52:00,
2013-01-10 14:57:00,50.0,49.5,30.46,SSE,158,8.0,11.0,98,-99.99,,,0.62,meteohub,2013-01-10 19:57:00,
2013-01-10 15:02:00,50.0,49.5,30.46,SSE,158,11.0,12.0,98,-99.99,,,0.62,meteohub,2013-01-10 20:02:00,
2013-01-10 15:07:00,50.0,49.5,30.46,SE,135,9.0,13.0,98,-99.99,,,0.62,meteohub,2013-01-10 20:07:00,
2013-01-10 15:12:00,50.0,49.5,30.46,SSE,158,11.0,13.0,98,-99.99,,,0.62,meteohub,2013-01-10 20:12:00,
2013-01-10 15:17:00,50.2,49.6,30.46,SSE,158,12.0,13.0,98,-99.99,,,0.62,meteohub,2013-01-10 20:17:00,
2013-01-10 15:22:00,50.2,49.6,30.46,SSE,158,9.0,13.0,98,-99.99,,,0.62,meteohub,2013-01-10 20:22:00,
2013-01-10 15:27:00,50.2,49.6,30.46,SSE,158,10.0,13.0,98,-99.99,,,0.62,meteohub,2013-01-10 20:27:00,
2013-01-10 15:32:00,50.0,49.5,30.46,SSE,158,7.0,13.0,98,-99.99,,,0.62,meteohub,2013-01-10 20:32:00,
2013-01-10 15:37:00,50.0,49.5,30.46,SSE,158,10.0,13.0,98,-99.99,,,0.62,meteohub,2013-01-10 20:37:00,
2013-01-10 15:42:00,50.0,49.5,30.46,South,180,10.0,13.0,98,-99.99,,,0.62,meteohub,2013-01-10 20:42:00,
2013-01-10 15:47:00,50.0,49.5,30.46,SSE,158,10.0,14.0,98,-99.99,,,0.62,meteohub,2013-01-10 20:47:00,
2013-01-10 15:52:00,50.0,49.5,30.46,SSE,158,10.0,14.0,98,-99.99,,,0.62,meteohub,2013-01-10 20:52:00,
2013-01-10 15:57:00,49.8,49.3,30.46,South,180,8.0,14.0,98,-99.99,,,0.62,meteohub,2013-01-10 20:57:00,
2013-01-10 16:02:00,50.0,49.5,30.46,SSE,158,7.0,14.0,98,-99.99,,,0.62,meteohub,2013-01-10 21:02:00,
2013-01-10 16:07:00,50.0,49.5,30.46,SSE,158,8.0,14.0,98,-99.99,,,0.62,meteohub,2013-01-10 21:07:00,
2013-01-10 16:12:00,50.2,49.6,30.46,SSE,158,9.0,11.0,98,-99.99,,,0.62,meteohub,2013-01-10 21:12:00,
2013-01-10 16:17:00,50.4,49.8,30.46,SSE,158,12.0,12.0,98,-99.99,,,0.62,meteohub,2013-01-10 21:17:00,
2013-01-10 16:22:00,50.4,49.8,30.46,SSE,158,8.0,12.0,98,-99.99,,,0.62,meteohub,2013-01-10 21:22:00,
2013-01-10 16:27:00,50.5,50.0,30.45,SSE,158,8.0,12.0,98,-99.99,,,0.62,meteohub,2013-01-10 21:27:00,
2013-01-10 16:32:00,50.7,50.2,30.45,SSE,158,9.0,12.0,98,-99.99,,,0.62,meteohub,2013-01-10 21:32:00,
2013-01-10 16:37:00,50.7,50.2,30.45,SSE,158,10.0,11.0,98,-99.99,,,0.62,meteohub,2013-01-10 21:37:00,
2013-01-10 16:42:00,50.5,50.0,30.45,SSE,158,9.0,11.0,98,-99.99,,,0.62,meteohub,2013-01-10 21:42:00,
2013-01-10 16:47:00,50.4,49.5,30.46,ESE,112,8.0,12.0,97,-99.99,,,0.62,meteohub,2013-01-10 21:47:00,
2013-01-10 16:52:00,50.4,49.5,30.46,SSW,202,8.0,12.0,97,-99.99,,,0.62,meteohub,2013-01-10 21:52:00,
2013-01-10 16:58:00,50.2,49.1,30.46,SSE,158,7.0,12.0,96,-99.99,,,0.62,meteohub,2013-01-10 21:58:00,
2013-01-10 17:03:00,50.2,49.1,30.46,SSE,158,10.0,11.0,96,-99.99,,,0.62,meteohub,2013-01-10 22:03:00,
2013-01-10 17:08:00,50.0,49.1,30.46,SSE,158,9.0,11.0,97,-99.99,,,0.62,meteohub,2013-01-10 22:08:00,
2013-01-10 17:13:00,50.0,49.1,30.49,SSE,158,12.0,12.0,97,-99.99,,,0.62,meteohub,2013-01-10 22:13:00,
2013-01-10 17:18:00,49.8,49.3,30.50,SSE,158,7.0,12.0,98,-99.99,,,0.62,meteohub,2013-01-10 22:18:00,
2013-01-10 17:23:00,49.8,49.3,30.50,SSE,158,9.0,12.0,98,-99.99,,,0.62,meteohub,2013-01-10 22:23:00,
2013-01-10 17:28:00,49.6,49.1,30.50,SSE,158,10.0,12.0,98,-99.99,,,0.62,meteohub,2013-01-10 22:28:00,
2013-01-10 17:33:00,49.6,49.1,30.50,SSE,158,8.0,12.0,98,-99.99,,,0.62,meteohub,2013-01-10 22:33:00,
2013-01-10 17:38:00,49.6,49.1,30.50,SSE,158,6.0,12.0,98,-99.99,,,0.62,meteohub,2013-01-10 22:38:00,
2013-01-10 17:43:00,49.5,48.9,30.46,SSE,158,6.0,11.0,98,-99.99,,,0.62,meteohub,2013-01-10 22:43:00,
2013-01-10 17:48:00,49.5,48.9,30.46,SSE,158,6.0,11.0,98,-99.99,,,0.62,meteohub,2013-01-10 22:48:00,
2013-01-10 17:53:00,49.5,48.9,30.46,SSE,158,7.0,11.0,98,-99.99,,,0.62,meteohub,2013-01-10 22:53:00,
2013-01-10 17:58:00,49.5,48.9,30.46,SSE,158,7.0,10.0,98,-99.99,,,0.62,meteohub,2013-01-10 22:58:00,
2013-01-10 18:03:00,49.5,48.9,30.46,SSE,158,6.0,10.0,98,-99.99,,,0.62,meteohub,2013-01-10 23:03:00,
2013-01-10 18:08:00,49.3,48.7,30.47,SSE,158,8.0,11.0,98,-99.99,,,0.62,meteohub,2013-01-10 23:08:00,
2013-01-10 18:13:00,49.3,48.7,30.47,SSE,158,9.0,11.0,98,-99.99,,,0.62,meteohub,2013-01-10 23:13:00,
2013-01-10 18:18:00,49.3,48.7,30.47,SSE,158,6.0,9.0,98,-99.99,,,0.62,meteohub,2013-01-10 23:18:00,
2013-01-10 18:23:00,49.3,48.7,30.47,SSE,158,6.0,11.0,98,-99.99,,,0.62,meteohub,2013-01-10 23:23:00,
2013-01-10 18:29:00,49.3,48.7,30.47,SSE,158,6.0,11.0,98,-99.99,,,0.62,meteohub,2013-01-10 23:29:00,
2013-01-10 18:34:00,49.3,48.7,30.47,SSE,158,7.0,11.0,98,-99.99,,,0.62,meteohub,2013-01-10 23:34:00,
2013-01-10 18:39:00,49.3,48.7,30.47,SSE,158,11.0,11.0,98,-99.99,,,0.62,meteohub,2013-01-10 23:39:00,
2013-01-10 18:44:00,49.1,48.6,30.47,SSE,158,6.0,9.0,98,-99.99,,,0.62,meteohub,2013-01-10 23:44:00,
2013-01-10 18:49:00,49.1,48.6,30.47,SSE,158,6.0,11.0,98,-99.99,,,0.62,meteohub,2013-01-10 23:49:00,
2013-01-10 18:54:00,49.1,48.6,30.47,SSE,158,8.0,11.0,98,-99.99,,,0.62,meteohub,2013-01-10 23:54:00,
2013-01-10 18:59:00,49.1,48.6,30.47,SSE,158,8.0,9.0,98,-99.99,,,0.62,meteohub,2013-01-10 23:59:00,
2013-01-10 19:04:00,48.9,48.4,30.47,SSE,158,9.0,11.0,98,-99.99,,,0.62,meteohub,2013-01-11 00:04:00,
2013-01-10 19:09:00,48.9,48.4,30.47,SSE,158,6.0,11.0,98,-99.99,,,0.62,meteohub,2013-01-11 00:09:00,
2013-01-10 19:14:00,48.9,48.4,30.47,SSE,158,9.0,11.0,98,-99.99,,,0.62,meteohub,2013-01-11 00:14:00,
2013-01-10 19:19:00,48.9,48.4,30.47,SSE,158,9.0,11.0,98,-99.99,,,0.62,meteohub,2013-01-11 00:19:00,
2013-01-10 19:24:00,48.9,48.4,30.47,SSE,158,7.0,11.0,98,-99.99,,,0.62,meteohub,2013-01-11 00:24:00,
2013-01-10 19:29:00,48.7,48.2,30.47,SSE,158,10.0,13.0,98,-99.99,,,0.62,meteohub,2013-01-11 00:29:00,
2013-01-10 19:34:00,48.7,48.2,30.47,SE,135,8.0,15.0,98,-99.99,,,0.62,meteohub,2013-01-11 00:34:00,
2013-01-10 19:39:00,48.4,47.8,30.47,SSE,158,9.0,15.0,98,-99.99,,,0.62,meteohub,2013-01-11 00:39:00,
2013-01-10 19:44:00,48.0,47.5,30.48,SSE,158,8.0,15.0,98,-99.99,,,0.62,meteohub,2013-01-11 00:44:00,
2013-01-10 19:49:00,48.0,47.5,30.48,SSW,202,9.0,13.0,98,-99.99,,,0.62,meteohub,2013-01-11 00:49:00,
2013-01-10 19:54:00,47.7,47.1,30.48,SSE,158,10.0,13.0,98,-99.99,,,0.62,meteohub,2013-01-11 00:54:00,
2013-01-10 19:59:00,47.5,46.9,30.48,SSE,158,7.0,10.0,98,-99.99,,,0.62,meteohub,2013-01-11 00:59:00,
2013-01-10 20:04:00,47.3,46.8,30.48,SSE,158,6.0,11.0,98,-99.99,,,0.62,meteohub,2013-01-11 01:04:00,
2013-01-10 20:09:00,47.3,46.8,30.48,SSE,158,8.0,11.0,98,-99.99,,,0.62,meteohub,2013-01-11 01:09:00,
2013-01-10 20:14:00,47.1,46.6,30.48,SSE,158,8.0,11.0,98,-99.99,,,0.62,meteohub,2013-01-11 01:14:00,
2013-01-10 20:19:00,47.1,46.6,30.48,SSE,158,8.0,13.0,98,-99.99,,,0.62,meteohub,2013-01-11 01:19:00,
2013-01-10 20:24:00,46.9,46.4,30.48,SSE,158,8.0,13.0,98,-99.99,,,0.62,meteohub,2013-01-11 01:24:00,
2013-01-10 20:29:00,46.6,45.1,30.49,SE,135,10.0,13.0,95,-99.99,,,0.62,meteohub,2013-01-11 01:29:00,
2013-01-10 20:34:00,46.8,43.2,30.49,SSW,202,12.0,13.0,87,-99.99,,,0.62,meteohub,2013-01-11 01:34:00,
2013-01-10 20:40:00,46.8,41.5,30.49,South,180,10.0,15.0,82,-99.99,,,0.62,meteohub,2013-01-11 01:40:00,
2013-01-10 20:45:00,46.8,40.6,30.49,SSE,158,9.0,15.0,79,-99.99,,,0.62,meteohub,2013-01-11 01:45:00,
2013-01-10 20:50:00,46.6,39.4,30.49,SSE,158,8.0,13.0,76,-99.99,,,0.62,meteohub,2013-01-11 01:50:00,
2013-01-10 20:55:00,46.6,38.8,30.49,SSE,158,10.0,13.0,74,-99.99,,,0.62,meteohub,2013-01-11 01:55:00,
2013-01-10 21:00:00,46.6,38.5,30.49,SSE,158,9.0,13.0,73,-99.99,,,0.62,meteohub,2013-01-11 02:00:00,
2013-01-10 21:05:00,46.4,38.3,30.49,SSE,158,8.0,13.0,73,-99.99,,,0.62,meteohub,2013-01-11 02:05:00,
2013-01-10 21:10:00,46.4,37.2,30.49,SE,135,8.0,13.0,70,-99.99,,,0.62,meteohub,2013-01-11 02:10:00,
2013-01-10 21:15:00,46.2,35.1,30.46,ESE,112,12.0,12.0,65,-99.99,,,0.62,meteohub,2013-01-11 02:15:00,
2013-01-10 21:20:00,46.2,35.6,30.46,SSE,158,9.0,15.0,66,-99.99,,,0.62,meteohub,2013-01-11 02:20:00,
2013-01-10 21:25:00,46.0,34.9,30.46,SSE,158,9.0,15.0,65,-99.99,,,0.62,meteohub,2013-01-11 02:25:00,
2013-01-10 21:30:00,46.0,34.2,30.46,SSE,158,11.0,15.0,63,-99.99,,,0.62,meteohub,2013-01-11 02:30:00,
2013-01-10 21:35:00,45.9,34.0,30.46,SSE,158,13.0,13.0,63,-99.99,,,0.62,meteohub,2013-01-11 02:35:00,
2013-01-10 21:40:00,45.9,32.7,30.46,SSE,158,12.0,13.0,60,-99.99,,,0.62,meteohub,2013-01-11 02:40:00,
2013-01-10 21:45:00,45.9,33.3,30.46,SSE,158,11.0,15.0,61,-99.99,,,0.62,meteohub,2013-01-11 02:45:00,
2013-01-10 21:50:00,45.7,33.1,30.46,ESE,112,10.0,15.0,61,-99.99,,,0.62,meteohub,2013-01-11 02:50:00,
2013-01-10 21:55:00,45.5,30.4,30.46,SSE,158,11.0,15.0,55,-99.99,,,0.62,meteohub,2013-01-11 02:55:00,
2013-01-10 22:00:00,45.3,30.6,30.46,SSE,158,11.0,15.0,56,-99.99,,,0.62,meteohub,2013-01-11 03:00:00,
2013-01-10 22:05:00,45.3,30.6,30.46,SSE,158,13.0,15.0,56,-99.99,,,0.62,meteohub,2013-01-11 03:05:00,
2013-01-10 22:10:00,45.1,30.4,30.47,SSE,158,13.0,17.0,56,-99.99,,,0.62,meteohub,2013-01-11 03:10:00,
2013-01-10 22:15:00,45.1,30.0,30.47,SSE,158,12.0,17.0,55,-99.99,,,0.62,meteohub,2013-01-11 03:15:00,
2013-01-10 22:20:00,45.0,29.8,30.47,SSE,158,12.0,17.0,55,-99.99,,,0.62,meteohub,2013-01-11 03:20:00,
2013-01-10 22:25:00,44.8,29.7,30.47,SSE,158,15.0,16.0,55,-99.99,,,0.62,meteohub,2013-01-11 03:25:00,
2013-01-10 22:30:00,44.8,29.1,30.47,SSE,158,11.0,16.0,54,-99.99,,,0.62,meteohub,2013-01-11 03:30:00,
2013-01-10 22:35:00,44.6,28.9,30.47,SSE,158,13.0,16.0,54,-99.99,,,0.62,meteohub,2013-01-11 03:35:00,
2013-01-10 22:40:00,44.6,28.6,30.47,SSE,158,13.0,15.0,53,-99.99,,,0.62,meteohub,2013-01-11 03:40:00,
2013-01-10 22:45:00,44.6,28.0,30.47,SSE,158,11.0,15.0,52,-99.99,,,0.62,meteohub,2013-01-11 03:45:00,
2013-01-10 22:50:00,44.6,28.6,30.47,SSE,158,12.0,15.0,53,-99.99,,,0.62,meteohub,2013-01-11 03:50:00,
2013-01-10 22:55:00,44.4,28.9,30.47,South,180,13.0,15.0,54,-99.99,,,0.62,meteohub,2013-01-11 03:55:00,
2013-01-10 23:00:00,44.4,28.9,30.47,SSE,158,11.0,20.0,54,-99.99,,,0.62,meteohub,2013-01-11 04:00:00,
2013-01-10 23:06:00,44.2,28.8,30.47,SSE,158,13.0,20.0,54,-99.99,,,0.62,meteohub,2013-01-11 04:06:00,
2013-01-10 23:11:00,44.2,28.2,30.44,SSE,158,11.0,17.0,53,-99.99,,,0.62,meteohub,2013-01-11 04:11:00,
2013-01-10 23:16:00,44.2,28.2,30.44,SSE,158,11.0,19.0,53,-99.99,,,0.62,meteohub,2013-01-11 04:16:00,
2013-01-10 23:21:00,44.2,28.2,30.44,South,180,13.0,19.0,53,-99.99,,,0.62,meteohub,2013-01-11 04:21:00,
2013-01-10 23:26:00,44.2,27.7,30.44,SSE,158,13.0,16.0,52,-99.99,,,0.62,meteohub,2013-01-11 04:26:00,
2013-01-10 23:31:00,44.2,28.2,30.44,South,180,11.0,16.0,53,-99.99,,,0.62,meteohub,2013-01-11 04:31:00,
2013-01-10 23:36:00,44.2,27.7,30.44,SSE,158,13.0,16.0,52,-99.99,,,0.62,meteohub,2013-01-11 04:36:00,
2013-01-10 23:41:00,44.2,27.7,30.44,SSE,158,12.0,17.0,52,-99.99,,,0.62,meteohub,2013-01-11 04:41:00,
2013-01-10 23:46:00,44.2,27.7,30.44,SSE,158,15.0,19.0,52,-99.99,,,0.62,meteohub,2013-01-11 04:46:00,
2013-01-10 23:51:00,44.1,27.7,30.44,SSE,158,19.0,22.0,52,-99.99,,,0.62,meteohub,2013-01-11 04:51:00,
2013-01-10 23:56:00,44.1,27.7,30.44,SSE,158,15.0,22.0,52,-99.99,,,0.62,meteohub,2013-01-11 04:56:00,